When you browse on this site, cookies collect data to enhance your experience and personalize the content and advertising you see.
Visit our Privacy Policy to learn more. By continuing to use the site, you agree to this use of cookies and data.
  • In Sweden
  • List of Countries
  • For 7 days
  • Water Temperature
  • Weather Map
  • Weather Widgets
  • user-avatar
    Login

    Hourly Weather Hammerfest

    Today, 26 May, Tuesday

    Time Temperature Precipitation Wind Pressure Humidity
    00:00 +4°C° 0 mm 3 mps 770 mmHg 81%
    01:00 +5°C° 0 mm 2 mps 770 mmHg 80%
    02:00 +5°C° 0 mm 2 mps 770 mmHg 79%
    03:00 +4°C° 0 mm 3 mps 770 mmHg 78%
    04:00 +5°C° 0 mm 3 mps 770 mmHg 77%
    05:00 +5°C° 0 mm 3 mps 770 mmHg 76%
    06:00 +5°C° 0 mm 3 mps 770 mmHg 79%
    07:00 +5°C° 0 mm 4 mps 769 mmHg 81%
    08:00 +5°C° 0 mm 4 mps 769 mmHg 83%
    09:00 +6°C° 0 mm 4 mps 769 mmHg 83%
    10:00 +6°C° 0 mm 4 mps 769 mmHg 84%
    11:00 +7°C° 0 mm 5 mps 769 mmHg 85%
    12:00 +7°C° 0 mm 4 mps 769 mmHg 83%
    13:00 +8°C° 0 mm 3 mps 769 mmHg 82%
    14:00 +9°C° 0 mm 3 mps 769 mmHg 81%
    15:00 +9°C° 0 mm 3 mps 768 mmHg 81%
    16:00 +9°C° 0 mm 3 mps 768 mmHg 81%
    17:00 +9°C° 0 mm 2 mps 767 mmHg 82%
    18:00 +8°C° 0 mm 3 mps 767 mmHg 82%
    19:00 +8°C° 0 mm 3 mps 767 mmHg 82%
    20:00 +8°C° 0 mm 3 mps 767 mmHg 83%
    21:00 +8°C° 0 mm 3 mps 766 mmHg 84%
    22:00 +8°C° 0 mm 3 mps 765 mmHg 85%
    23:00 +7°C° 0 mm 2 mps 765 mmHg 86%

    Tomorrow, 27 May, Wednesday

    Time Temperature Precipitation Wind Pressure Humidity
    00:00 +7°C° 0 mm 3 mps 764 mmHg 86%
    01:00 +7°C° 0 mm 3 mps 764 mmHg 86%
    02:00 +7°C° 0 mm 3 mps 763 mmHg 86%
    03:00 +7°C° 0 mm 3 mps 763 mmHg 86%
    04:00 +7°C° 0 mm 3 mps 762 mmHg 86%
    05:00 +7°C° 0 mm 3 mps 762 mmHg 86%
    06:00 +7°C° 0.2 mm 3 mps 761 mmHg 87%
    07:00 +7°C° 0.2 mm 3 mps 761 mmHg 87%
    08:00 +7°C° 0.2 mm 2 mps 761 mmHg 88%
    09:00 +7°C° 1.5 mm 2 mps 761 mmHg 90%
    10:00 +7°C° 1.5 mm 2 mps 761 mmHg 92%
    11:00 +5°C° 1.5 mm 3 mps 760 mmHg 94%
    12:00 +6°C° 0.4 mm 2 mps 760 mmHg 92%
    13:00 +7°C° 0.4 mm 2 mps 760 mmHg 89%
    14:00 +7°C° 0.4 mm 2 mps 760 mmHg 87%
    15:00 +7°C° 0 mm 2 mps 760 mmHg 84%
    16:00 +8°C° 0 mm 2 mps 760 mmHg 81%
    17:00 +8°C° 0 mm 3 mps 760 mmHg 78%
    18:00 +7°C° 0.3 mm 4 mps 760 mmHg 81%
    19:00 +6°C° 0.3 mm 5 mps 760 mmHg 85%
    20:00 +4°C° 0.3 mm 7 mps 760 mmHg 88%
    21:00 +4°C° 0.3 mm 7 mps 760 mmHg 87%
    22:00 +4°C° 0.3 mm 7 mps 760 mmHg 87%
    23:00 +3°C° 0.3 mm 7 mps 760 mmHg 86%

    Day after tomorrow, 28 May, Thursday

    Time Temperature Precipitation Wind Pressure Humidity
    00:00 +3°C° 0.2 mm 7 mps 760 mmHg 88%
    01:00 +3°C° 0.2 mm 6 mps 760 mmHg 90%
    02:00 +3°C° 0.2 mm 6 mps 760 mmHg 92%
    03:00 +3°C° 0.1 mm 6 mps 760 mmHg 91%
    04:00 +3°C° 0.1 mm 6 mps 759 mmHg 91%
    05:00 +3°C° 0.1 mm 6 mps 759 mmHg 90%
    06:00 +3°C° 0.3 mm 7 mps 759 mmHg 90%
    07:00 +3°C° 0.3 mm 7 mps 759 mmHg 90%
    08:00 +2°C° 0.3 mm 8 mps 759 mmHg 90%
    09:00 +2°C° 0.2 mm 8 mps 759 mmHg 88%
    10:00 +3°C° 0.2 mm 7 mps 759 mmHg 85%
    11:00 +4°C° 0.2 mm 7 mps 759 mmHg 83%
    12:00 +3°C° 0.2 mm 7 mps 759 mmHg 84%
    13:00 +2°C° 0.2 mm 8 mps 759 mmHg 85%
    14:00 +2°C° 0.2 mm 8 mps 760 mmHg 86%
    15:00 +3°C° 0.2 mm 7 mps 760 mmHg 87%
    16:00 +3°C° 0.2 mm 7 mps 760 mmHg 88%
    17:00 +3°C° 0.2 mm 7 mps 760 mmHg 88%
    18:00 +3°C° 0.3 mm 7 mps 760 mmHg 90%
    19:00 +2°C° 0.3 mm 8 mps 761 mmHg 91%
    20:00 +2°C° 0.3 mm 9 mps 761 mmHg 92%
    21:00 +2°C° 0.3 mm 8 mps 761 mmHg 93%
    22:00 +3°C° 0.3 mm 7 mps 761 mmHg 94%
    23:00 +3°C° 0.3 mm 6 mps 761 mmHg 94%

    29 May, Friday

    Time Temperature Precipitation Wind Pressure Humidity
    00:00 +3°C° 1.2 mm 6 mps 761 mmHg 94%
    01:00 +3°C° 1.2 mm 6 mps 761 mmHg 94%
    02:00 +3°C° 1.2 mm 6 mps 761 mmHg 94%
    03:00 +3°C° 1.2 mm 6 mps 761 mmHg 95%
    04:00 +3°C° 1.2 mm 7 mps 761 mmHg 95%
    05:00 +4°C° 1.2 mm 8 mps 761 mmHg 96%
    06:00 +4°C° 0.7 mm 8 mps 761 mmHg 94%
    07:00 +4°C° 0.7 mm 8 mps 760 mmHg 93%
    08:00 +4°C° 0.7 mm 8 mps 760 mmHg 91%
    09:00 +4°C° 0.7 mm 7 mps 760 mmHg 92%
    10:00 +4°C° 0.7 mm 7 mps 760 mmHg 92%
    11:00 +4°C° 0.7 mm 7 mps 760 mmHg 93%
    12:00 +4°C° 0.5 mm 7 mps 761 mmHg 92%
    13:00 +4°C° 0.5 mm 7 mps 761 mmHg 92%
    14:00 +4°C° 0.5 mm 8 mps 761 mmHg 91%
    15:00 +4°C° 0.1 mm 8 mps 762 mmHg 88%
    16:00 +3°C° 0.1 mm 9 mps 762 mmHg 85%
    17:00 +5°C° 0.1 mm 9 mps 763 mmHg 81%
    18:00 +3°C° 0.1 mm 9 mps 763 mmHg 80%
    19:00 +3°C° 0.1 mm 9 mps 764 mmHg 79%
    20:00 +2°C° 0.1 mm 9 mps 764 mmHg 78%
    21:00 +2°C° 0 mm 8 mps 764 mmHg 78%
    22:00 +2°C° 0 mm 8 mps 764 mmHg 79%
    23:00 +3°C° 0 mm 7 mps 765 mmHg 79%

    30 May, Saturday

    Time Temperature Precipitation Wind Pressure Humidity
    00:00 +3°C° 0 mm 7 mps 765 mmHg 80%
    01:00 +3°C° 0 mm 6 mps 765 mmHg 81%
    02:00 +3°C° 0 mm 6 mps 765 mmHg 81%
    03:00 +3°C° 0 mm 6 mps 766 mmHg 83%
    04:00 +3°C° 0 mm 6 mps 766 mmHg 84%
    05:00 +3°C° 0 mm 6 mps 766 mmHg 85%
    06:00 +3°C° 0 mm 6 mps 767 mmHg 85%
    07:00 +3°C° 0 mm 6 mps 767 mmHg 84%
    08:00 +5°C° 0 mm 5 mps 767 mmHg 84%
    09:00 +5°C° 0 mm 5 mps 767 mmHg 83%
    10:00 +5°C° 0 mm 5 mps 768 mmHg 82%
    11:00 +5°C° 0 mm 5 mps 768 mmHg 82%
    12:00 +5°C° 0 mm 4 mps 768 mmHg 81%
    13:00 +6°C° 0 mm 4 mps 768 mmHg 81%
    14:00 +6°C° 0 mm 4 mps 769 mmHg 81%
    15:00 +6°C° 0.1 mm 4 mps 769 mmHg 84%
    16:00 +7°C° 0.1 mm 3 mps 769 mmHg 86%
    17:00 +7°C° 0.1 mm 3 mps 769 mmHg 88%
    18:00 +7°C° 0.3 mm 2 mps 769 mmHg 90%
    19:00 +7°C° 0.3 mm 2 mps 769 mmHg 92%
    20:00 +7°C° 0.3 mm 2 mps 769 mmHg 94%
    21:00 +7°C° 0.4 mm 2 mps 769 mmHg 95%
    22:00 +7°C° 0.4 mm 3 mps 768 mmHg 95%
    23:00 +6°C° 0.4 mm 4 mps 768 mmHg 96%

    31 May, Sunday

    Time Temperature Precipitation Wind Pressure Humidity
    00:00 +6°C° 0.8 mm 4 mps 768 mmHg 96%
    01:00 +6°C° 0.8 mm 5 mps 768 mmHg 96%
    02:00 +5°C° 0.8 mm 6 mps 768 mmHg 96%
    03:00 +5°C° 0.7 mm 6 mps 768 mmHg 96%
    04:00 +5°C° 0.7 mm 6 mps 768 mmHg 96%
    05:00 +6°C° 0.7 mm 7 mps 767 mmHg 97%
    06:00 +6°C° 0.7 mm 7 mps 767 mmHg 97%
    07:00 +6°C° 0.7 mm 7 mps 767 mmHg 97%
    08:00 +6°C° 0.7 mm 7 mps 767 mmHg 97%
    09:00 +6°C° 0.7 mm 7 mps 767 mmHg 95%
    10:00 +6°C° 0.7 mm 7 mps 767 mmHg 94%
    11:00 +8°C° 0.7 mm 7 mps 767 mmHg 92%
    12:00 +8°C° 0.1 mm 7 mps 767 mmHg 87%
    13:00 +9°C° 0.1 mm 8 mps 767 mmHg 81%
    14:00 +10°C° 0.1 mm 9 mps 766 mmHg 76%
    15:00 +10°C° 0 mm 9 mps 766 mmHg 74%
    16:00 +10°C° 0 mm 9 mps 766 mmHg 72%
    17:00 +10°C° 0 mm 9 mps 766 mmHg 71%
    18:00 +9°C° 0 mm 8 mps 766 mmHg 72%
    19:00 +9°C° 0 mm 7 mps 766 mmHg 74%
    20:00 +9°C° 0 mm 6 mps 766 mmHg 75%
    21:00 +8°C° 0 mm 5 mps 766 mmHg 77%
    22:00 +8°C° 0 mm 5 mps 766 mmHg 79%
    23:00 +7°C° 0 mm 4 mps 766 mmHg 82%
    Show more